Weather History for KVER - December, 2012

Change the Weather History Date:

Wednesday, December 5, 2012

  Actual Average Record
Temperature  
Mean Temperature 44 °F -  
Max Temperature 57 °F 44 °F 69 °F (1975)
Min Temperature 32 °F 26 °F 10 °F (1974)
Degree Days  
Heating Degree Days 20    
Moisture  
Dew Point 33 °F    
Average Humidity 70    
Maximum Humidity 98    
Minimum Humidity 38    
Precipitation  
Precipitation 0.10 in - - ()
Sea Level Pressure  
Sea Level Pressure 30.24 in    
Wind  
Wind Speed 3 mph (SE)    
Max Wind Speed 10 mph    
Max Gust Speed -    
Visibility 10 miles    
Events      
Averages and records for this station are not official NWS values.
T = Trace of Precipitation, MM = Missing Value Source: NWS Daily Summary

Daily Weather History Graph

Daily Weather History Graph

Search for Another Location

Airport or City:

Trip Planner

Search our weather history database for the weather conditions in past years. The results will help you decide how hot, cold, wet, or windy it might be!

Date:

Astronomy

Dec. 05, 2012 Rise Set
Actual Time 7:14 AM CST 4:48 PM CST
Civil Twilight 6:45 AM CST 5:18 PM CST
Nautical Twilight 6:11 AM CST 5:51 PM CST
Astronomical Twilight 5:39 AM CST 6:23 PM CST
Moon 11:35 PM CST 11:41 AM CST
Length of Visible Light 10h 33m
Length of Day
9h 33m
Waning Gibbous, 59% of the Moon is Illuminated
Dec 5
Waning Gibbous
Dec 6
Last Quarter
Dec 13
New
Dec 19
First Quarter
Dec 28
Full

Hourly Weather History & Observations

Time (CST) Temp. Windchill Dew Point Humidity Pressure Visibility Wind Dir Wind Speed Gust Speed Precip Events Conditions
12:15 AM 35.6 °F 32.8 °F 32.9 °F 90% 30.31 in 10.0 mi South 3.5 mph - N/A   Clear
12:35 AM 36.3 °F - 32.7 °F 87% 30.31 in 10.0 mi Calm Calm - N/A   Clear
12:55 AM 36.9 °F - 32.0 °F 83% 30.31 in 10.0 mi Calm Calm - N/A   Clear
1:15 AM 36.7 °F - 32.5 °F 85% 30.32 in 10.0 mi Calm Calm - N/A   Clear
1:35 AM 39.7 °F - 31.5 °F 72% 30.33 in 10.0 mi Calm Calm - N/A   Clear
1:55 AM 37.6 °F - 31.6 °F 79% 30.33 in 10.0 mi Calm Calm - N/A   Clear
2:15 AM 35.2 °F - 30.9 °F 84% 30.33 in 10.0 mi Calm Calm - N/A   Clear
2:35 AM 32.7 °F - 31.8 °F 96% 30.34 in 10.0 mi Calm Calm - N/A   Clear
2:55 AM 33.6 °F - 32.4 °F 95% 30.34 in 10.0 mi Calm Calm - N/A   Clear
3:15 AM 34.9 °F 30.8 °F 32.2 °F 90% 30.34 in 10.0 mi North 4.6 mph - N/A   Clear
3:35 AM 34.5 °F - 32.0 °F 90% 30.34 in 10.0 mi Calm Calm - N/A   Clear
3:55 AM 34.9 °F - 32.2 °F 90% 30.34 in 10.0 mi Calm Calm - N/A   Clear
4:15 AM 35.2 °F - 32.4 °F 89% 30.33 in 10.0 mi Calm Calm - N/A   Clear
4:35 AM 36.5 °F - 32.5 °F 86% 30.34 in 10.0 mi Calm Calm - N/A   Clear
4:55 AM 35.8 °F - 31.6 °F 85% 30.34 in 10.0 mi Calm Calm - N/A   Clear
5:15 AM 34.0 °F - 32.0 °F 92% 30.34 in 10.0 mi Calm Calm - N/A   Clear
5:35 AM 33.3 °F - 32.0 °F 95% 30.34 in 10.0 mi Calm Calm - N/A   Clear
5:55 AM 32.9 °F - 31.6 °F 95% 30.35 in 10.0 mi Calm Calm - N/A   Clear
6:15 AM 32.2 °F - 30.9 °F 95% 30.35 in 10.0 mi Calm Calm - N/A   Clear
6:35 AM 32.0 °F - 30.9 °F 96% 30.35 in 10.0 mi Calm Calm - N/A   Clear
6:55 AM 32.0 °F - 31.5 °F 98% 30.35 in 10.0 mi Calm Calm - N/A   Clear
8:55 AM 38.3 °F 35.9 °F 34.0 °F 84% 30.34 in 10.0 mi SE 3.5 mph - N/A   Clear
9:15 AM 41.5 °F 35.9 °F 32.9 °F 71% 30.35 in 10.0 mi ESE 9.2 mph - N/A   Clear
9:35 AM 43.5 °F 40.1 °F 32.4 °F 65% 30.35 in 10.0 mi ESE 5.8 mph - N/A   Clear
9:55 AM 45.7 °F 42.7 °F 33.1 °F 61% 30.34 in 10.0 mi SE 5.8 mph - N/A   Clear
10:35 AM - - - N/A% 30.33 in 10.0 mi SE 4.6 mph - N/A   Clear
10:55 AM - - - N/A% 30.33 in 10.0 mi North - - N/A   Clear
11:15 AM 52.3 °F - 34.9 °F 51% 30.33 in 10.0 mi ESE 4.6 mph - N/A   Clear
11:35 AM 53.1 °F - 34.5 °F 49% 30.32 in 10.0 mi SSE 5.8 mph - N/A   Clear
11:55 AM - - - N/A% - - North - - N/A   Unknown
12:15 PM - - - N/A% - - North - - N/A   Unknown
12:35 PM - - - N/A% - - North - - N/A   Unknown
12:55 PM - - - N/A% 30.27 in - North - - 0.10 in   Unknown
1:15 PM 55.8 °F - 32.4 °F 41% 30.25 in 10.0 mi ESE 5.8 mph - N/A   Clear
1:35 PM 56.7 °F - 32.0 °F 39% 30.25 in 10.0 mi SSE 5.8 mph - N/A   Clear
1:55 PM 57.2 °F - 31.8 °F 38% 30.24 in 10.0 mi SE 3.5 mph - N/A   Clear
2:15 PM 57.0 °F - 32.2 °F 39% 30.23 in 10.0 mi SSE 5.8 mph - N/A   Clear
2:35 PM 55.8 °F - 33.3 °F 43% 30.23 in 10.0 mi SSE 5.8 mph - N/A   Clear
2:55 PM 55.6 °F - 34.7 °F 45% 30.21 in 10.0 mi SE 5.8 mph - N/A   Clear
3:15 PM 55.0 °F - 35.6 °F 48% 30.21 in 10.0 mi SE 3.5 mph - N/A   Clear
3:35 PM 54.5 °F - 36.1 °F 50% 30.20 in 10.0 mi ESE 5.8 mph - N/A   Clear
3:55 PM 53.4 °F - 35.8 °F 51% 30.20 in 10.0 mi ESE 5.8 mph - N/A   Clear
4:15 PM 51.4 °F - 35.6 °F 55% 30.19 in 10.0 mi ESE 5.8 mph - N/A   Clear
4:35 PM 50.4 °F - 34.5 °F 55% 30.18 in 10.0 mi ESE 5.8 mph - N/A   Clear
4:55 PM 49.1 °F - 33.4 °F 55% 30.18 in 10.0 mi ESE 6.9 mph - N/A   Clear
5:15 PM 48.4 °F - 34.0 °F 58% 30.18 in 10.0 mi Calm Calm - N/A   Clear
5:35 PM 47.3 °F - 34.0 °F 60% 30.18 in 10.0 mi SE 4.6 mph - N/A   Clear
5:55 PM 47.3 °F - 33.8 °F 59% 30.18 in 10.0 mi SE 6.9 mph - N/A   Clear
6:15 PM 46.8 °F - 33.8 °F 61% 30.17 in 10.0 mi ESE 5.8 mph - N/A   Clear
6:35 PM 45.7 °F 41.5 °F 33.4 °F 62% 30.16 in 10.0 mi ESE 8.1 mph - N/A   Clear
6:55 PM 45.0 °F 41.2 °F 33.8 °F 65% 30.16 in 10.0 mi ESE 6.9 mph - N/A   Clear
7:15 PM 45.3 °F 41.6 °F 34.3 °F 65% 30.15 in 10.0 mi ESE 6.9 mph - N/A   Clear
7:35 PM 45.0 °F 40.6 °F 34.7 °F 67% 30.15 in 10.0 mi ESE 8.1 mph - N/A   Clear
7:55 PM 44.8 °F 41.0 °F 34.9 °F 68% 30.15 in 10.0 mi ESE 6.9 mph - N/A   Clear
8:15 PM 44.6 °F 40.2 °F 35.2 °F 70% 30.14 in 10.0 mi ESE 8.1 mph - N/A   Clear
8:35 PM 44.8 °F 40.4 °F 35.8 °F 71% 30.13 in 10.0 mi ESE 8.1 mph - N/A   Clear
8:55 PM 44.6 °F 39.7 °F 35.8 °F 71% 30.12 in 10.0 mi SE 9.2 mph - N/A   Clear
9:15 PM 44.8 °F 39.4 °F 35.6 °F 70% 30.11 in 10.0 mi SE 10.4 mph - N/A   Clear
9:35 PM 45.3 °F 40.1 °F 35.6 °F 69% 30.11 in 10.0 mi ESE 10.4 mph - N/A   Clear
9:55 PM 45.5 °F 41.3 °F 35.2 °F 67% 30.11 in 10.0 mi SE 8.1 mph - N/A   Clear
10:15 PM 44.8 °F 40.4 °F 34.9 °F 68% 30.11 in 10.0 mi SE 8.1 mph - N/A   Clear
10:35 PM 44.1 °F 39.0 °F 34.7 °F 70% 30.10 in 10.0 mi SE 9.2 mph - N/A   Clear
10:55 PM 43.3 °F 39.9 °F 34.5 °F 71% 30.10 in 10.0 mi SE 5.8 mph - N/A   Clear
11:15 PM 42.6 °F 39.0 °F 34.0 °F 71% 30.10 in 10.0 mi SE 5.8 mph - N/A   Clear
11:35 PM 42.6 °F 39.0 °F 33.8 °F 71% 30.09 in 10.0 mi SE 5.8 mph - N/A   Clear
11:55 PM 42.1 °F 37.7 °F 33.3 °F 71% 30.09 in 10.0 mi SE 6.9 mph - N/A   Clear